Location: Feydey
(46.3431°N, 7.0106°E)
Time: 21:33:09
(UTC+00:00)

Cosmos 1603 - Pass Details

Date: 29 October 2021
Orbit: 829 x 861 km, 71.0° (Epoch: 27 November)

Event Time Altitude Azimuth Distance (km) Brightness Sun altitude
Rises 05:26:33 0° 339° (NNW) 3,446 6.6 -7.9°
Reaches altitude 10° 05:29:32 10° 354° (N) 2,508 6.0 -7.4°
Maximum altitude 05:34:07 24° 46° (NE) 1,730 5.8 -6.6°
Drops below altitude 10° 05:38:40 10° 99° (E) 2,498 8.0 -5.9°
Sets 05:41:37 0° 113° (ESE) 3,429 9.2 -5.4°
